FW2647 Weather Reports


Display with metric or nautical units.
time (UTC)temp
F
wind
direction
speed
MPH
gust
MPH
rain 1hr
in
rain 24hr
in
rain mn
in
humidity
%
barometer
mb
20260506134005 50 7 3.0 7.0 0.00 0.01 0.01 90 1012.1
20260506133217 50 27 4.0 7.0 0.01 0.01 0.01 90 1012.1
20260506132003 50 40 6.0 11.0 0.01 0.01 0.01 89 1012.1
20260506131003 51 25 4.0 8.0 0.01 0.01 0.01 89 1012.0
20260506130004 51 39 5.0 8.0 0.01 0.01 0.01 89 1012.0
20260506125006 51 40 5.0 9.0 0.01 0.01 0.01 88 1011.9
20260506124005 51 41 5.0 8.0 0.01 0.01 0.01 87 1011.8
20260506123005 51 28 6.0 12.0 0.00 0.00 0.00 86 1011.8
20260506122004 51 43 5.0 9.0 0.00 0.00 0.00 86 1011.8
20260506121005 52 7 4.0 7.0 0.00 0.00 0.00 87 1011.8
20260506120004 51 14 4.0 8.0 0.00 0.00 0.00 89 1011.8
20260506115003 51 25 4.0 8.0 0.00 0.00 0.00 89 1011.7
20260506114005 51 35 5.0 11.0 0.00 0.00 0.00 88 1011.7
20260506113218 50 47 7.0 11.0 0.00 0.00 0.00 86 1011.7
20260506112214 51 76 7.0 11.0 0.00 0.00 0.00 85 1011.7
20260506111006 51 50 9.0 17.0 0.00 0.00 0.00 81 1011.6
20260506110005 53 72 8.0 11.0 0.00 0.00 0.00 77 1011.5
20260506105003 54 34 5.0 13.0 0.00 0.00 0.00 74 1011.5
20260506104218 55 32 4.0 8.0 0.00 0.00 0.00 71 1011.3
20260506103005 54 20 6.0 13.0 0.00 0.00 0.00 72 1011.5
20260506102005 55 26 6.0 12.0 0.00 0.00 0.00 69 1011.4
20260506101005 55 78 9.0 13.0 0.00 0.00 0.00 70 1011.3
20260506100005 55 39 7.0 13.0 0.00 0.00 0.00 70 1011.3
20260506095006 54 35 7.0 12.0 0.00 0.00 0.00 71 1011.3
20260506094004 55 1 4.0 9.0 0.00 0.00 0.00 70 1011.2
20260506093005 54 20 7.0 15.0 0.00 0.00 0.00 74 1011.3
20260506092003 53 32 8.0 15.0 0.00 0.00 0.00 75 1011.1
20260506091216 53 25 6.0 13.0 0.00 0.00 0.00 76 1011.2
20260506090006 53 41 6.0 10.0 0.00 0.00 0.00 77 1011.0
20260506085218 53 51 7.0 15.0 0.00 0.00 0.00 78 1011.0
20260506084005 52 16 6.0 12.0 0.00 0.00 0.00 78 1010.9
20260506083215 52 5 5.0 11.0 0.00 0.00 0.00 80 1010.8
20260506082007 51 48 5.0 10.0 0.00 0.00 0.00 82 1010.9
20260506081217 50 39 5.0 11.0 0.00 0.00 0.00 83 1010.9
20260506080217 50 27 4.0 12.0 0.00 0.00 0.00 86 1010.9
20260506073003 47 358 4.0 9.0 0.00 0.00 0.00 93 1011.0
20260506072003 47 17 5.0 8.0 0.00 0.00 0.00 95 1011.0
20260506071005 46 22 4.0 8.0 0.00 0.00 0.00 96 1011.0
20260506070213 46 9 3.0 7.0 0.00 0.00 0.00 96 1010.9
20260506062004 44 335 3.0 6.0 0.00 0.00 0.00 99 1010.7
20260506061003 43 238 2.0 6.0 0.00 0.00 0.00 99 1010.8
20260506051003 42 327 4.0 6.0 0.00 0.00 0.00 99 1010.7
20260506045008 42 320 3.0 6.0 0.00 0.00 0.00 99 1010.7
20260506044005 42 321 1.0 3.0 0.00 0.00 0.00 99 1010.8
20260506043005 42 338 2.0 4.0 0.00 0.00 0.00 99 1010.7
20260506042008 42 340 2.0 4.0 0.00 0.00 0.00 99 1010.8
20260506041006 42 315 3.0 4.0 0.00 0.00 0.00 99 1010.6
20260506040004 42 323 3.0 4.0 0.00 0.00 0.00 99 1010.8
20260506035007 42 316 2.0 4.0 0.00 0.00 0.00 99 1010.8
20260506034005 42 328 3.0 5.0 0.00 0.00 0.00 99 1010.9
20260506033009 43 333 3.0 5.0 0.00 0.00 0.00 99 1011.1
20260506032219 43 315 3.0 5.0 0.00 0.00 0.00 99 1011.1
20260506031003 43 333 2.0 5.0 0.00 0.00 0.00 99 1011.2
20260506030005 43 336 3.0 5.0 0.00 0.00 0.00 99 1011.3
20260506025004 43 324 3.0 4.0 0.00 0.00 0.00 99 1011.4
20260506024005 44 338 3.0 5.0 0.00 0.00 0.00 99 1011.5
20260506023218 44 338 4.0 7.0 0.00 0.00 0.00 99 1011.5
20260506022003 44 319 3.0 6.0 0.00 0.00 0.00 99 1011.6
20260506021006 44 315 3.0 7.0 0.00 0.00 0.00 99 1011.7
20260506020004 44 323 3.0 6.0 0.00 0.00 0.00 99 1011.7
20260506015005 45 318 3.0 5.0 0.00 0.00 0.00 99 1011.7
20260506014003 45 316 2.0 4.0 0.00 0.00 0.00 98 1011.7
20260506013214 45 316 2.0 5.0 0.00 0.00 0.00 98 1011.7
20260506012006 45 315 2.0 5.0 0.00 0.00 0.00 98 1011.9
20260506011006 46 313 2.0 4.0 0.00 0.00 0.00 94 1011.9
20260506010004 46 334 1.0 3.0 0.00 0.00 0.00 94 1011.9
20260506005005 46 4 1.0 4.0 0.00 0.00 0.00 94 1011.9
20260506004003 46 9 2.0 4.0 0.00 0.00 0.00 94 1012.0
20260506003005 46 338 3.0 10.0 0.00 0.00 0.00 93 1012.3
20260506002005 46 353 2.0 6.0 0.00 0.00 0.00 93 1012.2
20260506001006 46 39 4.0 6.0 0.00 0.00 0.00 93 1012.2
20260506000219 46 13 4.0 7.0 0.00 0.00 0.00 92 1012.4
20260505235219 46 24 4.0 7.0 0.00 0.00 0.00 92 1012.3
20260505234005 46 36 3.0 5.0 0.00 0.00 0.00 91 1012.3
20260505233003 46 2 2.0 6.0 0.00 0.00 0.00 91 1012.5
20260505232003 46 48 3.0 5.0 0.00 0.00 0.00 91 1012.6
20260505231005 46 22 5.0 8.0 0.00 0.00 0.00 90 1012.7
20260505230003 46 22 3.0 6.0 0.00 0.00 0.00 90 1012.7
20260505225004 47 30 3.0 7.0 0.00 0.00 0.00 90 1012.7
20260505224003 47 42 4.0 6.0 0.00 0.00 0.00 88 1012.6
20260505223005 47 34 4.0 6.0 0.00 0.00 0.00 87 1012.7
20260505222005 47 13 4.0 9.0 0.00 0.00 0.00 86 1012.8
20260505221005 47 43 4.0 6.0 0.00 0.00 0.00 85 1012.7
20260505220007 47 23 4.0 9.0 0.00 0.00 0.00 84 1012.7
20260505215004 47 33 4.0 8.0 0.00 0.00 0.00 84 1012.8
20260505214005 47 19 4.0 8.0 0.00 0.00 0.00 83 1012.8
20260505213217 47 28 3.0 7.0 0.00 0.00 0.00 83 1013.0
20260505212007 48 15 4.0 7.0 0.00 0.00 0.00 82 1013.0
20260505211006 48 42 4.0 8.0 0.00 0.00 0.00 82 1013.0
20260505210003 49 48 4.0 8.0 0.00 0.00 0.00 81 1013.0
20260505205008 49 41 4.0 7.0 0.00 0.00 0.00 80 1013.0
20260505204004 49 35 4.0 8.0 0.00 0.00 0.00 80 1013.0
20260505203217 49 43 4.0 8.0 0.00 0.00 0.00 79 1012.9
20260505202006 50 50 4.0 8.0 0.00 0.00 0.00 78 1012.8
20260505201006 50 50 6.0 9.0 0.00 0.00 0.00 77 1012.7
20260505200215 50 44 6.0 10.0 0.00 0.00 0.00 76 1012.7
20260505195005 51 47 6.0 11.0 0.00 0.00 0.00 75 1012.7
20260505194003 51 47 5.0 10.0 0.00 0.00 0.00 74 1012.5
20260505193009 52 62 5.0 10.0 0.00 0.00 0.00 74 1012.5
20260505192006 52 43 3.0 7.0 0.00 0.00 0.00 73 1012.4
20260505191003 53 65 4.0 7.0 0.00 0.00 0.00 71 1012.2
20260505190216 53 81 4.0 7.0 0.00 0.00 0.00 71 1012.3
20260505185006 53 84 3.0 6.0 0.00 0.00 0.00 70 1012.3
20260505184005 54 68 4.0 7.0 0.00 0.00 0.00 69 1012.2
20260505183006 54 89 5.0 11.0 0.00 0.00 0.00 67 1012.3
20260505182004 55 56 7.0 13.0 0.00 0.00 0.00 61 1012.2
20260505181004 56 81 5.0 7.0 0.00 0.00 0.00 61 1012.2
20260505180006 58 66 5.0 8.0 0.00 0.00 0.00 60 1012.2
20260505175008 58 84 4.0 8.0 0.00 0.00 0.00 61 1012.1
20260505174003 58 74 3.0 7.0 0.00 0.00 0.00 65 1012.1
20260505173003 57 106 3.0 6.0 0.00 0.00 0.00 63 1012.1
20260505172006 57 130 3.0 7.0 0.00 0.00 0.00 63 1012.2
20260505171003 57 64 3.0 6.0 0.00 0.00 0.00 61 1012.3
20260505170006 58 127 3.0 6.0 0.00 0.00 0.00 61 1012.3
20260505165213 58 117 3.0 8.0 0.00 0.00 0.00 60 1012.4
20260505164005 59 103 3.0 8.0 0.00 0.00 0.00 58 1012.3
20260505163220 60 97 4.0 11.0 0.00 0.00 0.00 57 1012.3
20260505162216 60 92 4.0 10.0 0.00 0.00 0.00 58 1012.3
20260505161006 60 144 4.0 8.0 0.00 0.00 0.00 55 1012.2
20260505153220 60 83 4.0 8.0 0.00 0.00 0.00 54 1012.2
20260505152003 60 73 5.0 11.0 0.00 0.00 0.00 52 1012.2
20260505151003 62 106 4.0 11.0 0.00 0.00 0.00 51 1012.3